Time,TemperatureF,DewpointF,PressureIn,WindDirection,WindDirectionDegrees,WindSpeedMPH,WindSpeedGustMPH,Humidity,HourlyPrecipIn,Conditions,Clouds,dailyrainin,SoftwareType,DateUTC
2013-09-26 00:04:00,72.7,68.9,29.97,NE,48,8.0,8.0,88,0.00,,,0.00,VWS V14.01,2013-09-26 10:04:00,
2013-09-26 00:09:00,72.7,68.3,29.97,NNE,28,12.0,12.0,86,0.00,,,0.00,VWS V14.01,2013-09-26 10:09:00,
2013-09-26 00:14:00,72.8,68.4,29.97,NE,42,7.0,7.0,86,0.00,,,0.00,VWS V14.01,2013-09-26 10:14:00,
2013-09-26 00:19:00,72.8,68.4,29.97,NE,45,6.0,6.0,86,0.00,,,0.00,VWS V14.01,2013-09-26 10:19:00,
2013-09-26 00:24:00,72.7,68.3,29.97,NNE,24,10.0,10.0,86,0.00,,,0.00,VWS V14.01,2013-09-26 10:24:00,
2013-09-26 00:30:00,72.6,68.5,29.97,NE,42,9.0,9.0,87,0.00,,,0.00,VWS V14.01,2013-09-26 10:30:00,
2013-09-26 00:35:00,72.6,68.5,29.97,North,2,10.0,10.0,87,0.00,,,0.00,VWS V14.01,2013-09-26 10:35:00,
2013-09-26 00:40:00,72.7,68.6,29.97,NNE,21,14.0,14.0,87,0.00,,,0.00,VWS V14.01,2013-09-26 10:40:00,
2013-09-26 00:45:00,72.8,68.4,29.96,NE,40,5.0,6.0,86,0.00,,,0.00,VWS V14.01,2013-09-26 10:45:00,
2013-09-26 00:50:00,72.8,68.4,29.96,NNE,21,8.0,8.0,86,0.00,,,0.00,VWS V14.01,2013-09-26 10:50:00,
2013-09-26 00:55:00,73.0,68.2,29.96,NNE,16,14.0,14.0,85,0.00,,,0.00,VWS V14.01,2013-09-26 10:55:00,
2013-09-26 01:00:00,73.1,68.3,29.96,NE,52,9.0,10.0,85,0.00,,,0.00,VWS V14.01,2013-09-26 11:00:00,
2013-09-26 01:05:00,73.1,68.7,29.96,NNE,26,15.0,16.0,86,0.00,,,0.00,VWS V14.01,2013-09-26 11:05:00,
2013-09-26 01:11:00,73.0,68.6,29.96,NE,54,10.0,10.0,86,0.00,,,0.00,VWS V14.01,2013-09-26 11:11:00,
2013-09-26 01:16:00,72.8,68.7,29.95,NNE,31,10.0,10.0,87,0.00,,,0.00,VWS V14.01,2013-09-26 11:16:00,
2013-09-26 01:21:00,72.7,68.6,29.95,NNE,13,12.0,13.0,87,0.00,,,0.00,VWS V14.01,2013-09-26 11:21:00,
2013-09-26 01:26:00,72.7,68.6,29.95,NE,50,4.0,4.0,87,0.00,,,0.00,VWS V14.01,2013-09-26 11:26:00,
2013-09-26 01:31:00,72.7,68.3,29.95,NE,40,6.0,6.0,86,0.00,,,0.00,VWS V14.01,2013-09-26 11:31:00,
2013-09-26 01:37:00,72.7,67.9,29.94,NE,38,7.0,8.0,85,0.00,,,0.00,VWS V14.01,2013-09-26 11:37:00,
2013-09-26 01:42:00,73.0,67.9,29.94,ENE,59,5.0,5.0,84,0.00,,,0.00,VWS V14.01,2013-09-26 11:42:00,
2013-09-26 01:47:00,73.2,67.4,29.94,East,79,3.0,5.0,82,0.00,,,0.00,VWS V14.01,2013-09-26 11:47:00,
2013-09-26 01:52:00,73.2,67.7,29.94,NE,42,15.0,15.0,83,0.00,,,0.00,VWS V14.01,2013-09-26 11:52:00,
2013-09-26 01:57:00,72.9,68.1,29.94,ENE,66,6.0,8.0,85,0.00,,,0.00,VWS V14.01,2013-09-26 11:57:00,
2013-09-26 02:02:00,72.6,68.2,29.94,NE,46,11.0,11.0,86,0.00,,,0.00,VWS V14.01,2013-09-26 12:02:00,
2013-09-26 02:07:00,72.6,67.5,29.93,North,353,11.0,17.0,84,0.00,,,0.00,VWS V14.01,2013-09-26 12:07:00,
2013-09-26 02:12:00,72.9,67.1,29.93,NNE,33,3.0,5.0,82,0.00,,,0.00,VWS V14.01,2013-09-26 12:12:00,
2013-09-26 02:17:00,73.0,67.9,29.94,ENE,70,13.0,13.0,84,0.00,,,0.00,VWS V14.01,2013-09-26 12:17:00,
2013-09-26 02:22:00,72.7,67.9,29.93,NE,55,6.0,6.0,85,0.00,,,0.00,VWS V14.01,2013-09-26 12:22:00,
2013-09-26 02:27:00,72.6,67.8,29.93,NNE,20,11.0,11.0,85,0.00,,,0.00,VWS V14.01,2013-09-26 12:27:00,
2013-09-26 02:32:00,72.5,67.4,29.93,ENE,63,4.0,4.0,84,0.00,,,0.00,VWS V14.01,2013-09-26 12:32:00,
2013-09-26 02:38:00,72.3,67.2,29.93,WNW,296,3.0,5.0,84,0.00,,,0.00,VWS V14.01,2013-09-26 12:38:00,
2013-09-26 02:43:00,72.4,66.2,29.93,NNE,21,6.0,6.0,81,0.00,,,0.00,VWS V14.01,2013-09-26 12:43:00,
2013-09-26 02:48:00,72.9,66.0,29.93,NE,42,2.0,3.0,79,0.00,,,0.00,VWS V14.01,2013-09-26 12:48:00,
2013-09-26 02:53:00,72.7,66.2,29.93,NNE,21,4.0,4.0,80,0.00,,,0.00,VWS V14.01,2013-09-26 12:53:00,
2013-09-26 02:58:00,73.0,65.4,29.93,NNE,18,4.0,5.0,77,0.00,,,0.00,VWS V14.01,2013-09-26 12:58:00,
2013-09-26 03:03:00,73.4,65.4,29.93,North,359,2.0,2.0,76,0.00,,,0.00,VWS V14.01,2013-09-26 13:03:00,
2013-09-26 03:08:00,74.1,65.3,29.93,NNW,348,6.0,6.0,74,0.00,,,0.00,VWS V14.01,2013-09-26 13:08:00,
2013-09-26 03:13:00,74.3,65.5,29.93,NE,42,4.0,7.0,74,0.00,,,0.00,VWS V14.01,2013-09-26 13:13:00,
2013-09-26 03:18:00,74.3,65.5,29.93,NNE,25,7.0,11.0,74,0.00,,,0.00,VWS V14.01,2013-09-26 13:18:00,
2013-09-26 03:23:00,74.0,65.6,29.93,NNE,28,13.0,13.0,75,0.00,,,0.00,VWS V14.01,2013-09-26 13:23:00,
2013-09-26 03:29:00,73.4,65.8,29.93,NE,38,11.0,12.0,77,0.00,,,0.00,VWS V14.01,2013-09-26 13:29:00,
2013-09-26 03:34:00,73.1,66.2,29.93,NE,52,10.0,10.0,79,0.00,,,0.00,VWS V14.01,2013-09-26 13:34:00,
2013-09-26 03:39:00,72.8,66.3,29.93,NE,44,2.0,3.0,80,0.00,,,0.00,VWS V14.01,2013-09-26 13:39:00,
2013-09-26 03:44:00,72.7,66.2,29.93,NNE,21,6.0,7.0,80,0.00,,,0.00,VWS V14.01,2013-09-26 13:44:00,
2013-09-26 03:49:00,72.6,66.4,29.92,NW,315,14.0,14.0,81,0.00,,,0.00,VWS V14.01,2013-09-26 13:49:00,
2013-09-26 03:54:00,73.0,66.1,29.92,NNW,334,17.0,17.0,79,0.00,,,0.00,VWS V14.01,2013-09-26 13:54:00,
2013-09-26 03:59:00,73.3,66.0,29.92,NNE,33,2.0,4.0,78,0.00,,,0.00,VWS V14.01,2013-09-26 13:59:00,
2013-09-26 04:05:00,73.5,66.2,29.92,ENE,59,4.0,5.0,78,0.00,,,0.00,VWS V14.01,2013-09-26 14:05:00,
2013-09-26 04:10:00,73.3,66.4,29.93,NNE,30,12.0,13.0,79,0.00,,,0.00,VWS V14.01,2013-09-26 14:10:00,
2013-09-26 04:15:00,73.2,66.3,29.93,North,7,9.0,14.0,79,0.00,,,0.00,VWS V14.01,2013-09-26 14:15:00,
2013-09-26 04:20:00,73.0,66.8,29.93,NE,56,12.0,13.0,81,0.00,,,0.00,VWS V14.01,2013-09-26 14:20:00,
2013-09-26 04:25:00,72.9,67.1,29.93,NNE,13,16.0,16.0,82,0.00,,,0.00,VWS V14.01,2013-09-26 14:25:00,
2013-09-26 04:30:00,72.9,67.4,29.93,NNE,31,8.0,8.0,83,0.00,,,0.00,VWS V14.01,2013-09-26 14:30:00,
2013-09-26 04:35:00,72.9,67.1,29.93,NNE,28,9.0,12.0,82,0.00,,,0.00,VWS V14.01,2013-09-26 14:35:00,
2013-09-26 04:40:00,73.0,66.5,29.93,NNE,29,8.0,9.0,80,0.00,,,0.00,VWS V14.01,2013-09-26 14:40:00,
2013-09-26 04:45:00,73.1,66.6,29.94,North,3,12.0,14.0,80,0.00,,,0.00,VWS V14.01,2013-09-26 14:45:00,
2013-09-26 04:51:00,73.2,68.1,29.94,NNE,26,14.0,16.0,84,0.00,,,0.00,VWS V14.01,2013-09-26 14:51:00,
2013-09-26 04:56:00,72.9,67.8,29.94,NE,45,11.0,13.0,84,0.00,,,0.00,VWS V14.01,2013-09-26 14:56:00,
2013-09-26 05:01:00,72.7,67.6,29.94,NE,56,12.0,13.0,84,0.00,,,0.00,VWS V14.01,2013-09-26 15:01:00,
2013-09-26 05:06:00,72.7,67.6,29.94,NNE,28,13.0,13.0,84,0.00,,,0.00,VWS V14.01,2013-09-26 15:06:00,
2013-09-26 05:11:00,72.7,67.6,29.95,NNE,16,12.0,19.0,84,0.00,,,0.00,VWS V14.01,2013-09-26 15:11:00,
2013-09-26 05:16:00,72.8,68.0,29.94,NNE,16,13.0,19.0,85,0.00,,,0.00,VWS V14.01,2013-09-26 15:16:00,
2013-09-26 05:21:00,72.9,68.1,29.95,NE,35,12.0,20.0,85,0.00,,,0.00,VWS V14.01,2013-09-26 15:21:00,
2013-09-26 05:26:00,72.8,68.0,29.94,NNE,14,23.0,23.0,85,0.00,,,0.00,VWS V14.01,2013-09-26 15:26:00,
2013-09-26 05:31:00,72.7,67.9,29.95,NE,42,10.0,11.0,85,0.00,,,0.00,VWS V14.01,2013-09-26 15:31:00,
2013-09-26 05:36:00,72.5,67.7,29.95,NE,40,9.0,10.0,85,0.00,,,0.00,VWS V14.01,2013-09-26 15:36:00,
2013-09-26 05:41:00,72.4,67.3,29.95,NE,50,9.0,9.0,84,0.00,,,0.00,VWS V14.01,2013-09-26 15:41:00,
2013-09-26 05:46:00,72.3,67.2,29.95,NE,42,2.0,4.0,84,0.00,,,0.00,VWS V14.01,2013-09-26 15:46:00,
2013-09-26 05:51:00,72.3,67.2,29.95,ENE,61,1.0,2.0,84,0.00,,,0.00,VWS V14.01,2013-09-26 15:51:00,
2013-09-26 05:56:00,72.3,67.5,29.96,NW,324,9.0,9.0,85,0.00,,,0.00,VWS V14.01,2013-09-26 15:56:00,
2013-09-26 06:01:00,72.3,67.5,29.96,NE,54,6.0,10.0,85,0.00,,,0.00,VWS V14.01,2013-09-26 16:01:00,
2013-09-26 06:07:00,72.3,67.2,29.96,NE,36,4.0,9.0,84,0.00,,,0.00,VWS V14.01,2013-09-26 16:07:00,
2013-09-26 06:12:00,72.6,66.8,29.95,NNW,331,17.0,17.0,82,0.00,,,0.00,VWS V14.01,2013-09-26 16:12:00,
2013-09-26 06:17:00,72.8,66.6,29.96,NNW,344,5.0,9.0,81,0.00,,,0.00,VWS V14.01,2013-09-26 16:17:00,
2013-09-26 06:22:00,73.4,65.8,29.96,NNE,17,14.0,17.0,77,0.00,,,0.00,VWS V14.01,2013-09-26 16:22:00,
2013-09-26 06:27:00,74.0,65.2,29.96,NNE,29,7.0,11.0,74,0.00,,,0.00,VWS V14.01,2013-09-26 16:27:00,
2013-09-26 06:32:00,74.4,64.8,29.96,NNE,19,8.0,11.0,72,0.00,,,0.00,VWS V14.01,2013-09-26 16:32:00,
2013-09-26 06:37:00,74.9,65.3,29.97,NNE,29,11.0,12.0,72,0.00,,,0.00,VWS V14.01,2013-09-26 16:37:00,
2013-09-26 06:42:00,75.0,65.4,29.97,NE,44,12.0,14.0,72,0.00,,,0.00,VWS V14.01,2013-09-26 16:42:00,
2013-09-26 06:47:00,75.1,65.5,29.97,NNE,15,16.0,16.0,72,0.00,,,0.00,VWS V14.01,2013-09-26 16:47:00,
2013-09-26 06:52:00,75.3,65.3,29.97,NNE,26,8.0,14.0,71,0.00,,,0.00,VWS V14.01,2013-09-26 16:52:00,
2013-09-26 06:58:00,74.9,64.9,29.98,NNE,17,13.0,15.0,71,0.00,,,0.00,VWS V14.01,2013-09-26 16:58:00,
2013-09-26 07:03:00,74.7,65.1,29.97,NNE,26,8.0,9.0,72,0.00,,,0.00,VWS V14.01,2013-09-26 17:03:00,
2013-09-26 07:08:00,74.4,65.6,29.97,NNE,12,10.0,12.0,74,0.00,,,0.00,VWS V14.01,2013-09-26 17:08:00,
2013-09-26 07:13:00,74.2,65.8,29.97,North,7,14.0,14.0,75,0.00,,,0.00,VWS V14.01,2013-09-26 17:13:00,
2013-09-26 07:18:00,74.1,66.4,29.97,NE,55,9.0,13.0,77,0.00,,,0.00,VWS V14.01,2013-09-26 17:18:00,
2013-09-26 07:23:00,74.3,66.6,29.97,ENE,70,6.0,6.0,77,0.00,,,0.00,VWS V14.01,2013-09-26 17:23:00,
2013-09-26 07:28:00,74.7,66.6,29.97,NE,42,6.0,8.0,76,0.00,,,0.00,VWS V14.01,2013-09-26 17:28:00,
2013-09-26 07:33:00,75.2,66.7,29.97,ENE,59,7.0,7.0,75,0.00,,,0.00,VWS V14.01,2013-09-26 17:33:00,
2013-09-26 07:38:00,75.2,67.1,29.98,NNE,31,7.0,10.0,76,0.00,,,0.00,VWS V14.01,2013-09-26 17:38:00,
2013-09-26 07:43:00,75.2,67.5,29.98,NE,35,13.0,14.0,77,0.00,,,0.00,VWS V14.01,2013-09-26 17:43:00,
2013-09-26 07:48:00,75.1,67.8,29.98,NE,38,11.0,11.0,78,0.00,,,0.00,VWS V14.01,2013-09-26 17:48:00,
2013-09-26 07:54:00,74.9,67.6,29.98,NE,49,15.0,15.0,78,0.00,,,0.00,VWS V14.01,2013-09-26 17:54:00,
2013-09-26 07:59:00,75.0,68.1,29.99,NE,44,9.0,13.0,79,0.00,,,0.00,VWS V14.01,2013-09-26 17:59:00,
2013-09-26 08:05:00,74.9,67.9,29.99,NE,38,5.0,10.0,79,0.00,,,0.00,VWS V14.01,2013-09-26 18:05:00,
2013-09-26 08:10:00,75.1,67.8,29.99,NNE,28,10.0,10.0,78,0.00,,,0.00,VWS V14.01,2013-09-26 18:10:00,
2013-09-26 08:15:00,75.4,67.7,29.99,NE,38,9.0,10.0,77,0.00,,,0.00,VWS V14.01,2013-09-26 18:15:00,
2013-09-26 08:20:00,75.9,68.2,29.98,ENE,59,13.0,15.0,77,0.00,,,0.00,VWS V14.01,2013-09-26 18:20:00,
2013-09-26 08:25:00,76.2,68.1,29.98,NNE,26,5.0,6.0,76,0.00,,,0.00,VWS V14.01,2013-09-26 18:25:00,
2013-09-26 08:30:00,76.7,67.8,29.98,ENE,71,3.0,3.0,74,0.00,,,0.00,VWS V14.01,2013-09-26 18:30:00,
2013-09-26 08:35:00,77.6,67.5,29.97,ESE,102,7.0,7.0,71,0.00,,,0.00,VWS V14.01,2013-09-26 18:35:00,
2013-09-26 08:40:00,78.0,67.4,29.97,NNE,27,3.0,5.0,70,0.00,,,0.00,VWS V14.01,2013-09-26 18:40:00,
2013-09-26 08:45:00,78.9,67.4,29.97,East,99,12.0,12.0,68,0.00,,,0.00,VWS V14.01,2013-09-26 18:45:00,
2013-09-26 08:50:00,78.3,66.9,29.98,NE,54,8.0,9.0,68,0.00,,,0.00,VWS V14.01,2013-09-26 18:50:00,
2013-09-26 08:55:00,78.0,67.8,29.98,East,86,11.0,16.0,71,0.00,,,0.00,VWS V14.01,2013-09-26 18:55:00,
2013-09-26 09:00:00,77.7,67.1,29.98,ENE,65,10.0,14.0,70,0.00,,,0.00,VWS V14.01,2013-09-26 19:00:00,
2013-09-26 09:05:00,76.7,67.8,29.99,East,89,10.0,15.0,74,0.00,,,0.00,VWS V14.01,2013-09-26 19:05:00,
2013-09-26 09:11:00,75.8,66.9,29.99,NE,42,11.0,16.0,74,0.00,,,0.00,VWS V14.01,2013-09-26 19:11:00,
2013-09-26 09:16:00,76.0,66.7,29.99,NE,37,4.0,6.0,73,0.00,,,0.00,VWS V14.01,2013-09-26 19:16:00,
2013-09-26 09:21:00,76.5,67.2,29.99,North,356,8.0,16.0,73,0.00,,,0.00,VWS V14.01,2013-09-26 19:21:00,
2013-09-26 09:26:00,77.0,67.3,29.99,NE,48,8.0,12.0,72,0.00,,,0.00,VWS V14.01,2013-09-26 19:26:00,
2013-09-26 09:31:00,78.0,67.0,29.99,ENE,60,12.0,12.0,69,0.00,,,0.00,VWS V14.01,2013-09-26 19:31:00,
2013-09-26 09:36:00,78.4,66.6,29.99,ENE,57,4.0,5.0,67,0.00,,,0.00,VWS V14.01,2013-09-26 19:36:00,
2013-09-26 09:41:00,79.1,65.9,29.98,ENE,60,9.0,10.0,64,0.00,,,0.00,VWS V14.01,2013-09-26 19:41:00,
2013-09-26 09:46:00,79.0,66.2,29.98,NE,53,7.0,9.0,65,0.00,,,0.00,VWS V14.01,2013-09-26 19:46:00,
2013-09-26 09:51:00,78.4,65.7,29.98,NE,50,7.0,9.0,65,0.00,,,0.00,VWS V14.01,2013-09-26 19:51:00,
2013-09-26 09:56:00,77.9,66.1,29.98,NE,47,6.0,6.0,67,0.00,,,0.00,VWS V14.01,2013-09-26 19:56:00,
2013-09-26 10:01:00,77.8,66.0,29.98,ENE,68,13.0,13.0,67,0.00,,,0.00,VWS V14.01,2013-09-26 20:01:00,
2013-09-26 10:06:00,77.6,65.3,29.98,NE,54,8.0,12.0,66,0.00,,,0.00,VWS V14.01,2013-09-26 20:06:00,
2013-09-26 10:11:00,77.7,65.9,29.98,NE,52,11.0,11.0,67,0.00,,,0.00,VWS V14.01,2013-09-26 20:11:00,
2013-09-26 10:17:00,78.4,66.6,29.98,NNE,21,13.0,13.0,67,0.00,,,0.00,VWS V14.01,2013-09-26 20:17:00,
2013-09-26 10:22:00,79.1,66.8,29.98,ENE,60,16.0,16.0,66,0.00,,,0.00,VWS V14.01,2013-09-26 20:22:00,
2013-09-26 10:27:00,78.6,66.3,29.98,ENE,60,12.0,15.0,66,0.00,,,0.00,VWS V14.01,2013-09-26 20:27:00,
2013-09-26 10:32:00,78.4,66.6,29.98,NE,38,7.0,9.0,67,0.00,,,0.00,VWS V14.01,2013-09-26 20:32:00,
2013-09-26 10:37:00,78.6,67.6,29.98,NNE,31,12.0,16.0,69,0.00,,,0.00,VWS V14.01,2013-09-26 20:37:00,
2013-09-26 10:42:00,78.3,67.3,29.98,NNE,31,11.0,12.0,69,0.00,,,0.00,VWS V14.01,2013-09-26 20:42:00,
2013-09-26 10:47:00,79.0,67.6,29.98,ENE,68,13.0,14.0,68,0.00,,,0.00,VWS V14.01,2013-09-26 20:47:00,
2013-09-26 10:52:00,79.0,66.7,29.98,NE,43,9.0,14.0,66,0.00,,,0.00,VWS V14.01,2013-09-26 20:52:00,
2013-09-26 10:57:00,78.8,66.9,29.98,NE,38,11.0,11.0,67,0.00,,,0.00,VWS V14.01,2013-09-26 20:57:00,
2013-09-26 11:02:00,79.4,67.9,29.97,NNE,19,9.0,12.0,68,0.00,,,0.00,VWS V14.01,2013-09-26 21:02:00,
2013-09-26 11:08:00,79.8,68.3,29.97,ENE,68,15.0,15.0,68,0.00,,,0.00,VWS V14.01,2013-09-26 21:08:00,
2013-09-26 11:13:00,79.7,69.1,29.97,NE,52,6.0,6.0,70,0.00,,,0.00,VWS V14.01,2013-09-26 21:13:00,
2013-09-26 11:18:00,79.9,68.8,29.97,ENE,58,7.0,9.0,69,0.00,,,0.00,VWS V14.01,2013-09-26 21:18:00,
2013-09-26 11:24:00,79.9,68.8,29.97,ENE,62,11.0,17.0,69,0.00,,,0.00,VWS V14.01,2013-09-26 21:24:00,
2013-09-26 11:29:00,79.6,68.5,29.97,NE,38,10.0,14.0,69,0.00,,,0.00,VWS V14.01,2013-09-26 21:29:00,
2013-09-26 11:34:00,79.6,69.0,29.96,NE,48,9.0,16.0,70,0.00,,,0.00,VWS V14.01,2013-09-26 21:34:00,
2013-09-26 11:39:00,79.9,68.8,29.96,NNE,26,16.0,16.0,69,0.00,,,0.00,VWS V14.01,2013-09-26 21:39:00,
2013-09-26 11:44:00,79.8,68.7,29.96,NE,42,10.0,10.0,69,0.00,,,0.00,VWS V14.01,2013-09-26 21:44:00,
2013-09-26 11:49:00,79.6,68.5,29.96,NNW,346,14.0,14.0,69,0.00,,,0.00,VWS V14.01,2013-09-26 21:49:00,
2013-09-26 11:54:00,79.9,68.4,29.96,NW,324,22.0,22.0,68,0.00,,,0.00,VWS V14.01,2013-09-26 21:54:00,
2013-09-26 11:59:00,80.0,68.5,29.95,NNW,336,13.0,18.0,68,0.00,,,0.00,VWS V14.01,2013-09-26 21:59:00,
2013-09-26 12:04:00,80.6,68.6,29.95,NNE,23,3.0,10.0,67,0.00,,,0.00,VWS V14.01,2013-09-26 22:04:00,
2013-09-26 12:09:00,80.9,69.4,29.95,ESE,105,12.0,12.0,68,0.00,,,0.00,VWS V14.01,2013-09-26 22:09:00,
2013-09-26 12:14:00,80.1,69.4,29.95,ENE,69,11.0,16.0,70,0.00,,,0.00,VWS V14.01,2013-09-26 22:14:00,
2013-09-26 12:19:00,79.9,69.7,29.95,NNE,32,13.0,15.0,71,0.00,,,0.00,VWS V14.01,2013-09-26 22:19:00,
2013-09-26 12:24:00,79.6,69.8,29.95,NE,40,11.0,13.0,72,0.00,,,0.00,VWS V14.01,2013-09-26 22:24:00,
2013-09-26 12:29:00,78.9,69.9,29.95,NE,50,15.0,15.0,74,0.00,,,0.00,VWS V14.01,2013-09-26 22:29:00,
2013-09-26 12:35:00,79.0,70.0,29.95,ENE,62,10.0,10.0,74,0.00,,,0.00,VWS V14.01,2013-09-26 22:35:00,
2013-09-26 12:40:00,79.1,70.1,29.95,NE,38,7.0,18.0,74,0.00,,,0.00,VWS V14.01,2013-09-26 22:40:00,
2013-09-26 12:45:00,79.0,70.4,29.95,NE,40,17.0,17.0,75,0.00,,,0.00,VWS V14.01,2013-09-26 22:45:00,
2013-09-26 12:50:00,79.0,70.0,29.95,East,79,10.0,12.0,74,0.00,,,0.00,VWS V14.01,2013-09-26 22:50:00,
2013-09-26 12:55:00,78.4,70.2,29.94,NNE,29,7.0,7.0,76,0.00,,,0.00,VWS V14.01,2013-09-26 22:55:00,
2013-09-26 13:00:00,78.7,70.1,29.94,South,174,2.0,3.0,75,0.00,,,0.00,VWS V14.01,2013-09-26 23:00:00,
2013-09-26 13:05:00,78.2,70.0,29.94,NNE,28,12.0,12.0,76,0.00,,,0.00,VWS V14.01,2013-09-26 23:05:00,
2013-09-26 13:10:00,77.9,69.3,29.93,East,82,17.0,22.0,75,0.00,,,0.00,VWS V14.01,2013-09-26 23:10:00,
2013-09-26 13:15:00,77.8,69.6,29.94,NNE,33,9.0,9.0,76,0.00,,,0.00,VWS V14.01,2013-09-26 23:15:00,
2013-09-26 13:20:00,77.5,69.3,29.94,ENE,66,8.0,9.0,76,0.00,,,0.00,VWS V14.01,2013-09-26 23:20:00,
2013-09-26 13:25:00,77.2,69.4,29.94,NNE,13,11.0,12.0,77,0.00,,,0.00,VWS V14.01,2013-09-26 23:25:00,
2013-09-26 13:30:00,76.9,69.2,29.94,NNE,25,14.0,14.0,77,0.00,,,0.00,VWS V14.01,2013-09-26 23:30:00,
2013-09-26 13:35:00,76.7,69.3,29.93,NE,52,2.0,6.0,78,0.00,,,0.00,VWS V14.01,2013-09-26 23:35:00,
2013-09-26 13:40:00,76.9,69.5,29.94,NE,47,9.0,9.0,78,0.00,,,0.00,VWS V14.01,2013-09-26 23:40:00,
2013-09-26 13:46:00,77.0,69.2,29.94,ENE,76,6.0,13.0,77,0.00,,,0.00,VWS V14.01,2013-09-26 23:46:00,
2013-09-26 13:51:00,77.1,69.7,29.94,NE,52,12.0,17.0,78,0.00,,,0.00,VWS V14.01,2013-09-26 23:51:00,
2013-09-26 13:56:00,76.9,69.5,29.93,ENE,75,9.0,11.0,78,0.00,,,0.00,VWS V14.01,2013-09-26 23:56:00,
2013-09-26 14:01:00,77.2,69.4,29.93,East,95,9.0,9.0,77,0.00,,,0.00,VWS V14.01,2013-09-27 00:01:00,
2013-09-26 14:06:00,77.0,69.6,29.93,NNE,19,16.0,16.0,78,0.00,,,0.00,VWS V14.01,2013-09-27 00:06:00,
2013-09-26 14:11:00,76.6,69.6,29.93,ENE,71,8.0,8.0,79,0.00,,,0.00,VWS V14.01,2013-09-27 00:11:00,
2013-09-26 14:16:00,76.8,69.8,29.92,ENE,71,5.0,7.0,79,0.00,,,0.00,VWS V14.01,2013-09-27 00:16:00,
2013-09-26 14:21:00,76.6,70.0,29.93,NNE,20,10.0,12.0,80,0.00,,,0.00,VWS V14.01,2013-09-27 00:21:00,
2013-09-26 14:27:00,76.2,69.9,29.92,NE,44,13.0,13.0,81,0.00,,,0.00,VWS V14.01,2013-09-27 00:27:00,
2013-09-26 14:32:00,76.1,70.2,29.92,ENE,61,9.0,9.0,82,0.00,,,0.00,VWS V14.01,2013-09-27 00:32:00,
2013-09-26 14:37:00,76.1,69.8,29.92,NE,47,12.0,14.0,81,0.00,,,0.00,VWS V14.01,2013-09-27 00:37:00,
2013-09-26 14:42:00,75.9,70.0,29.92,East,79,16.0,17.0,82,0.00,,,0.00,VWS V14.01,2013-09-27 00:42:00,
2013-09-26 14:47:00,75.8,69.6,29.92,NNE,31,9.0,10.0,81,0.00,,,0.00,VWS V14.01,2013-09-27 00:47:00,
2013-09-26 14:53:00,75.9,69.7,29.92,NE,56,8.0,10.0,81,0.00,,,0.00,VWS V14.01,2013-09-27 00:53:00,
2013-09-26 14:58:00,76.0,69.0,29.92,NNE,28,11.0,12.0,79,0.00,,,0.00,VWS V14.01,2013-09-27 00:58:00,
2013-09-26 15:03:00,76.2,69.2,29.92,NNE,23,15.0,15.0,79,0.00,,,0.00,VWS V14.01,2013-09-27 01:03:00,
2013-09-26 15:08:00,76.2,69.2,29.92,NE,47,11.0,11.0,79,0.00,,,0.00,VWS V14.01,2013-09-27 01:08:00,
2013-09-26 15:13:00,76.1,69.1,29.92,NNE,28,12.0,14.0,79,0.00,,,0.00,VWS V14.01,2013-09-27 01:13:00,
2013-09-26 15:18:00,76.1,69.1,29.92,NNE,14,8.0,8.0,79,0.00,,,0.00,VWS V14.01,2013-09-27 01:18:00,
2013-09-26 15:23:00,76.0,69.0,29.92,NNE,26,7.0,11.0,79,0.00,,,0.00,VWS V14.01,2013-09-27 01:23:00,
2013-09-26 15:28:00,76.1,69.1,29.92,NE,42,13.0,14.0,79,0.00,,,0.00,VWS V14.01,2013-09-27 01:28:00,
2013-09-26 15:33:00,76.2,69.2,29.91,NNW,336,13.0,13.0,79,0.00,,,0.00,VWS V14.01,2013-09-27 01:33:00,
2013-09-26 15:38:00,76.0,69.0,29.92,NNE,24,11.0,14.0,79,0.00,,,0.00,VWS V14.01,2013-09-27 01:38:00,
2013-09-26 15:43:00,75.9,68.9,29.92,NNW,348,9.0,16.0,79,0.00,,,0.00,VWS V14.01,2013-09-27 01:43:00,
2013-09-26 15:48:00,75.9,68.6,29.91,NNE,20,9.0,9.0,78,0.00,,,0.00,VWS V14.01,2013-09-27 01:48:00,
2013-09-26 15:53:00,76.1,69.1,29.92,NNE,16,20.0,20.0,79,0.00,,,0.00,VWS V14.01,2013-09-27 01:53:00,
2013-09-26 15:58:00,76.1,68.8,29.91,NW,316,16.0,16.0,78,0.00,,,0.00,VWS V14.01,2013-09-27 01:58:00,
2013-09-26 16:04:00,76.2,68.1,29.92,NNE,15,11.0,11.0,76,0.00,,,0.00,VWS V14.01,2013-09-27 02:04:00,
2013-09-26 16:09:00,76.3,68.2,29.92,NNW,330,20.0,20.0,76,0.00,,,0.00,VWS V14.01,2013-09-27 02:09:00,
2013-09-26 16:14:00,76.3,68.2,29.92,NNE,12,14.0,14.0,76,0.00,,,0.00,VWS V14.01,2013-09-27 02:14:00,
2013-09-26 16:19:00,76.3,68.2,29.92,North,351,14.0,14.0,76,0.00,,,0.00,VWS V14.01,2013-09-27 02:19:00,
2013-09-26 16:24:00,76.1,68.4,29.92,NW,318,17.0,17.0,77,0.00,,,0.00,VWS V14.01,2013-09-27 02:24:00,
2013-09-26 16:29:00,76.1,68.8,29.92,NNE,26,12.0,17.0,78,0.00,,,0.00,VWS V14.01,2013-09-27 02:29:00,
2013-09-26 16:34:00,75.9,68.2,29.91,NW,318,22.0,22.0,77,0.00,,,0.00,VWS V14.01,2013-09-27 02:34:00,
2013-09-26 16:39:00,75.9,67.8,29.92,NW,321,16.0,16.0,76,0.00,,,0.00,VWS V14.01,2013-09-27 02:39:00,
2013-09-26 16:45:00,75.9,67.4,29.92,NNE,24,11.0,11.0,75,0.00,,,0.00,VWS V14.01,2013-09-27 02:45:00,
2013-09-26 16:50:00,75.9,67.4,29.92,NNE,28,8.0,8.0,75,0.00,,,0.00,VWS V14.01,2013-09-27 02:50:00,
2013-09-26 16:55:00,75.9,67.4,29.92,NE,52,4.0,9.0,75,0.00,,,0.00,VWS V14.01,2013-09-27 02:55:00,
2013-09-26 17:01:00,75.9,67.8,29.92,East,85,5.0,10.0,76,0.00,,,0.00,VWS V14.01,2013-09-27 03:01:00,
2013-09-26 17:06:00,75.8,67.7,29.92,North,359,11.0,11.0,76,0.00,,,0.00,VWS V14.01,2013-09-27 03:06:00,
2013-09-26 17:11:00,75.7,67.2,29.92,NE,35,5.0,6.0,75,0.00,,,0.00,VWS V14.01,2013-09-27 03:11:00,
2013-09-26 17:16:00,75.8,67.3,29.91,NNE,27,7.0,9.0,75,0.00,,,0.00,VWS V14.01,2013-09-27 03:16:00,
2013-09-26 17:21:00,75.8,67.3,29.92,NNE,25,14.0,16.0,75,0.00,,,0.00,VWS V14.01,2013-09-27 03:21:00,
2013-09-26 17:26:00,75.8,67.3,29.91,NW,319,16.0,16.0,75,0.00,,,0.00,VWS V14.01,2013-09-27 03:26:00,
2013-09-26 17:31:00,75.8,67.3,29.92,NNW,335,24.0,24.0,75,0.00,,,0.00,VWS V14.01,2013-09-27 03:31:00,
2013-09-26 17:36:00,75.9,67.4,29.92,NE,46,10.0,10.0,75,0.00,,,0.00,VWS V14.01,2013-09-27 03:36:00,
2013-09-26 17:41:00,75.9,67.8,29.92,NE,54,11.0,12.0,76,0.00,,,0.00,VWS V14.01,2013-09-27 03:41:00,
2013-09-26 17:47:00,75.8,68.1,29.92,NE,35,12.0,14.0,77,0.00,,,0.00,VWS V14.01,2013-09-27 03:47:00,
2013-09-26 17:52:00,75.7,68.0,29.92,North,5,7.0,12.0,77,0.00,,,0.00,VWS V14.01,2013-09-27 03:52:00,
2013-09-26 17:57:00,75.7,68.0,29.92,ENE,68,8.0,8.0,77,0.00,,,0.00,VWS V14.01,2013-09-27 03:57:00,
2013-09-26 18:01:00,75.6,68.3,29.93,NNE,29,13.0,13.0,78,0.00,,,0.00,VWS V14.01,2013-09-27 04:01:00,
2013-09-26 18:02:00,75.6,68.3,29.93,NE,35,12.0,12.0,78,0.00,,,0.00,VWS V14.01,2013-09-27 04:02:00,
2013-09-26 18:07:00,75.6,68.3,29.93,NNE,12,5.0,6.0,78,0.00,,,0.00,VWS V14.01,2013-09-27 04:07:00,
2013-09-26 18:12:00,75.6,68.3,29.93,NE,34,7.0,10.0,78,0.00,,,0.00,VWS V14.01,2013-09-27 04:12:00,
2013-09-26 18:17:00,75.5,68.5,29.93,NE,46,11.0,13.0,79,0.00,,,0.00,VWS V14.01,2013-09-27 04:17:00,
2013-09-26 18:22:00,75.3,68.3,29.93,NE,54,6.0,6.0,79,0.00,,,0.00,VWS V14.01,2013-09-27 04:22:00,
2013-09-26 18:28:00,75.2,68.6,29.93,NE,35,9.0,13.0,80,0.00,,,0.00,VWS V14.01,2013-09-27 04:28:00,
2013-09-26 18:33:00,75.1,68.5,29.94,NNE,26,5.0,7.0,80,0.00,,,0.00,VWS V14.01,2013-09-27 04:33:00,
2013-09-26 18:38:00,75.0,68.4,29.94,NNE,23,8.0,8.0,80,0.00,,,0.00,VWS V14.01,2013-09-27 04:38:00,
2013-09-26 18:43:00,74.9,68.3,29.94,NE,38,7.0,7.0,80,0.00,,,0.00,VWS V14.01,2013-09-27 04:43:00,
2013-09-26 18:48:00,74.8,67.5,29.95,ENE,67,7.0,7.0,78,0.00,,,0.00,VWS V14.01,2013-09-27 04:48:00,
2013-09-26 18:53:00,74.7,67.0,29.95,NE,52,11.0,11.0,77,0.00,,,0.00,VWS V14.01,2013-09-27 04:53:00,
2013-09-26 18:58:00,74.6,67.3,29.95,NE,39,8.0,8.0,78,0.00,,,0.00,VWS V14.01,2013-09-27 04:58:00,
2013-09-26 19:03:00,74.7,67.4,29.95,NNE,33,8.0,8.0,78,0.00,,,0.00,VWS V14.01,2013-09-27 05:03:00,
2013-09-26 19:09:00,74.6,67.3,29.95,NNE,33,8.0,8.0,78,0.00,,,0.00,VWS V14.01,2013-09-27 05:09:00,
2013-09-26 19:14:00,74.6,66.9,29.95,NE,40,7.0,10.0,77,0.00,,,0.00,VWS V14.01,2013-09-27 05:14:00,
2013-09-26 19:19:00,74.4,67.1,29.95,NE,37,7.0,9.0,78,0.00,,,0.00,VWS V14.01,2013-09-27 05:19:00,
2013-09-26 19:24:00,74.3,67.0,29.96,NE,38,2.0,3.0,78,0.00,,,0.00,VWS V14.01,2013-09-27 05:24:00,
2013-09-26 19:29:00,74.2,66.9,29.96,NE,34,10.0,11.0,78,0.00,,,0.00,VWS V14.01,2013-09-27 05:29:00,
2013-09-26 19:34:00,74.1,67.2,29.96,NE,55,5.0,7.0,79,0.00,,,0.00,VWS V14.01,2013-09-27 05:34:00,
2013-09-26 19:39:00,73.9,66.6,29.96,NNE,27,8.0,10.0,78,0.00,,,0.00,VWS V14.01,2013-09-27 05:39:00,
2013-09-26 19:44:00,73.9,66.6,29.96,ENE,58,14.0,14.0,78,0.00,,,0.00,VWS V14.01,2013-09-27 05:44:00,
2013-09-26 19:49:00,73.9,66.6,29.96,North,5,7.0,8.0,78,0.00,,,0.00,VWS V14.01,2013-09-27 05:49:00,
2013-09-26 19:54:00,73.9,66.6,29.96,East,92,10.0,11.0,78,0.00,,,0.00,VWS V14.01,2013-09-27 05:54:00,
2013-09-26 19:59:00,73.8,66.5,29.96,NNE,28,11.0,13.0,78,0.00,,,0.00,VWS V14.01,2013-09-27 05:59:00,
2013-09-26 20:05:00,73.9,66.2,29.96,NNE,27,5.0,7.0,77,0.00,,,0.00,VWS V14.01,2013-09-27 06:05:00,
2013-09-26 20:10:00,73.9,65.9,29.97,North,9,6.0,6.0,76,0.00,,,0.00,VWS V14.01,2013-09-27 06:10:00,
2013-09-26 20:15:00,73.8,65.8,29.97,NE,54,12.0,12.0,76,0.00,,,0.00,VWS V14.01,2013-09-27 06:15:00,
2013-09-26 20:20:00,73.7,65.7,29.97,NE,38,10.0,10.0,76,0.00,,,0.00,VWS V14.01,2013-09-27 06:20:00,
2013-09-26 20:25:00,74.1,64.5,29.97,NE,36,6.0,6.0,72,0.00,,,0.00,VWS V14.01,2013-09-27 06:25:00,
2013-09-26 20:30:00,74.0,66.0,29.97,ENE,60,13.0,13.0,76,0.00,,,0.00,VWS V14.01,2013-09-27 06:30:00,
2013-09-26 20:35:00,73.8,65.8,29.97,NNE,20,13.0,13.0,76,0.00,,,0.00,VWS V14.01,2013-09-27 06:35:00,
2013-09-26 20:40:00,73.7,66.1,29.97,North,359,8.0,8.0,77,0.00,,,0.00,VWS V14.01,2013-09-27 06:40:00,
2013-09-26 20:46:00,73.7,66.4,29.97,NE,35,9.0,12.0,78,0.00,,,0.00,VWS V14.01,2013-09-27 06:46:00,
2013-09-26 20:51:00,73.6,66.3,29.98,NNE,20,7.0,8.0,78,0.00,,,0.00,VWS V14.01,2013-09-27 06:51:00,
2013-09-26 20:56:00,73.5,66.6,29.98,NNE,23,17.0,17.0,79,0.00,,,0.00,VWS V14.01,2013-09-27 06:56:00,
2013-09-26 21:01:00,73.5,66.6,29.98,NNE,15,6.0,10.0,79,0.00,,,0.00,VWS V14.01,2013-09-27 07:01:00,
2013-09-26 21:06:00,73.6,67.1,29.98,NNE,21,13.0,13.0,80,0.00,,,0.00,VWS V14.01,2013-09-27 07:06:00,
2013-09-26 21:11:00,73.6,66.7,29.97,North,7,6.0,6.0,79,0.00,,,0.00,VWS V14.01,2013-09-27 07:11:00,
2013-09-26 21:16:00,73.6,66.7,29.97,NNE,23,13.0,15.0,79,0.00,,,0.00,VWS V14.01,2013-09-27 07:16:00,
2013-09-26 21:21:00,73.5,66.6,29.97,NNE,16,12.0,12.0,79,0.00,,,0.00,VWS V14.01,2013-09-27 07:21:00,
2013-09-26 21:26:00,73.6,66.7,29.97,NNE,12,14.0,14.0,79,0.00,,,0.00,VWS V14.01,2013-09-27 07:26:00,
2013-09-26 21:32:00,73.6,66.3,29.98,NE,48,12.0,13.0,78,0.00,,,0.00,VWS V14.01,2013-09-27 07:32:00,
2013-09-26 21:37:00,73.6,66.3,29.98,NE,37,7.0,8.0,78,0.00,,,0.00,VWS V14.01,2013-09-27 07:37:00,
2013-09-26 21:42:00,73.6,66.7,29.97,NE,39,11.0,11.0,79,0.00,,,0.00,VWS V14.01,2013-09-27 07:42:00,
2013-09-26 21:47:00,73.6,66.3,29.97,NNE,18,5.0,6.0,78,0.00,,,0.00,VWS V14.01,2013-09-27 07:47:00,
2013-09-26 21:49:00,73.6,66.7,29.97,NE,42,4.0,4.0,79,0.00,,,0.00,VWS V14.01,2013-09-27 07:49:00,
2013-09-26 21:54:00,73.5,66.2,29.97,NNE,20,3.0,3.0,78,0.00,,,0.00,VWS V14.01,2013-09-27 07:54:00,
2013-09-26 21:59:00,73.4,66.5,29.97,East,96,3.0,4.0,79,0.00,,,0.00,VWS V14.01,2013-09-27 07:59:00,
2013-09-26 22:05:00,73.5,66.6,29.97,NE,37,0.0,0.0,79,0.00,,,0.00,VWS V14.01,2013-09-27 08:05:00,
2013-09-26 22:10:00,73.5,66.6,29.97,NNE,33,2.0,4.0,79,0.00,,,0.00,VWS V14.01,2013-09-27 08:10:00,
2013-09-26 22:15:00,73.5,66.2,29.97,NNE,19,9.0,9.0,78,0.00,,,0.00,VWS V14.01,2013-09-27 08:15:00,
2013-09-26 22:20:00,73.6,66.3,29.97,North,3,6.0,7.0,78,0.00,,,0.00,VWS V14.01,2013-09-27 08:20:00,
2013-09-26 22:25:00,73.6,66.3,29.98,NE,38,5.0,7.0,78,0.00,,,0.00,VWS V14.01,2013-09-27 08:25:00,
2013-09-26 22:30:00,73.6,66.7,29.98,NNE,25,7.0,9.0,79,0.00,,,0.00,VWS V14.01,2013-09-27 08:30:00,
2013-09-26 22:35:00,73.5,66.6,29.98,NE,45,2.0,3.0,79,0.00,,,0.00,VWS V14.01,2013-09-27 08:35:00,
2013-09-26 22:40:00,73.4,66.9,29.98,ENE,67,5.0,5.0,80,0.00,,,0.00,VWS V14.01,2013-09-27 08:40:00,
2013-09-26 22:46:00,73.3,67.1,29.97,North,11,7.0,9.0,81,0.00,,,0.00,VWS V14.01,2013-09-27 08:46:00,
2013-09-26 22:51:00,73.2,67.0,29.97,NNE,19,6.0,7.0,81,0.00,,,0.00,VWS V14.01,2013-09-27 08:51:00,
2013-09-26 22:56:00,73.1,67.3,29.98,NNE,26,14.0,14.0,82,0.00,,,0.00,VWS V14.01,2013-09-27 08:56:00,
2013-09-26 23:01:00,73.1,67.6,29.97,NE,35,9.0,10.0,83,0.00,,,0.00,VWS V14.01,2013-09-27 09:01:00,
2013-09-26 23:06:00,73.1,67.6,29.97,NNE,26,7.0,7.0,83,0.00,,,0.00,VWS V14.01,2013-09-27 09:06:00,
2013-09-26 23:11:00,73.1,67.6,29.97,North,360,14.0,19.0,83,0.00,,,0.00,VWS V14.01,2013-09-27 09:11:00,
2013-09-26 23:16:00,73.1,67.6,29.97,NE,54,6.0,8.0,83,0.00,,,0.00,VWS V14.01,2013-09-27 09:16:00,
2013-09-26 23:21:00,73.1,67.6,29.97,ENE,62,13.0,18.0,83,0.00,,,0.00,VWS V14.01,2013-09-27 09:21:00,
2013-09-26 23:26:00,73.1,67.6,29.97,NE,40,14.0,14.0,83,0.00,,,0.00,VWS V14.01,2013-09-27 09:26:00,
2013-09-26 23:31:00,73.1,66.6,29.97,NE,50,14.0,19.0,80,0.00,,,0.00,VWS V14.01,2013-09-27 09:31:00,
2013-09-26 23:36:00,73.7,66.8,29.97,NE,42,10.0,18.0,79,0.00,,,0.00,VWS V14.01,2013-09-27 09:36:00,
2013-09-26 23:41:00,73.7,67.5,29.97,ENE,66,8.0,10.0,81,0.00,,,0.00,VWS V14.01,2013-09-27 09:41:00,
2013-09-26 23:47:00,73.5,67.7,29.97,NNE,16,12.0,20.0,82,0.00,,,0.00,VWS V14.01,2013-09-27 09:47:00,
2013-09-26 23:52:00,73.5,68.0,29.96,NNE,23,5.0,9.0,83,0.00,,,0.00,VWS V14.01,2013-09-27 09:52:00,
2013-09-26 23:57:00,73.3,67.8,29.96,NE,54,3.0,6.0,83,0.00,,,0.00,VWS V14.01,2013-09-27 09:57:00,